Home   Weather   Santa Clara   Past weeks

Flag for Cuba Past Weather in Santa Clara, Cuba — Yesterday and Last 2 Weeks

Now
68 °F

Mild.


Feels Like: 68 °F
Forecast: 69 / 84 °F
Wind: 7 mph from Northeast

Location: Cienfuegos - Las Villas

Current Time: Dec 10, 2016 at 8:00:01 am

Latest Report: Dec 10, 2016 at 6:58 am


Visibility: N/A

Pressure: 30.12 "Hg

Humidity: 100%

Dew Point: 68 °F

Location of Santa ClaraLocation

Past Weather in Santa Clara — Graph

°F

Santa Clara Temperature Yesterday

Maximum temperature yesterday: 90 °F (at 1:50 pm)
Minimum temperature yesterday: 70 °F (at 2:58 am)
Average temperature yesterday: 77 °F

High & Low Weather Summary for the Past Weeks

 TemperatureHumidityPressure
High91 °F (Dec 2, 2:50 pm)100% (Nov 27, 1:58 am)30.15 "Hg (Nov 27, 1:58 am)
Low63 °F (Nov 28, 3:57 am)41% (Dec 9, 2:50 pm)29.86 "Hg (Nov 28, 2:50 pm)
Average77 °F80%30.00 "Hg
* Reported Nov 25 8:53 am — Dec 10 5:58 am, Santa Clara, Weather by CustomWeather, © 2016

Note: Actual official high and low records may vary slightly from our data, if they occured in-between our weather recording intervals... More about our weather records

Advertising

Santa Clara Weather History for the Previous 24 Hours

Scroll right to see more
 ConditionsComfort  
Time TempWeatherWind HumidityBarometerVisibility
5:58 am
Sat, Dec 10
68 °FMild.8 mph100%30.12 "HgN/A
4:58 am68 °FMild.8 mph100%30.09 "HgN/A
3:57 am68 °FMild.7 mph100%30.09 "HgN/A
2:58 am70 °FMild.8 mph94%30.09 "HgN/A
1:58 am70 °FMild.8 mph94%30.12 "HgN/A
12:58 am70 °FMild.8 mph94%30.12 "HgN/A
11:58 pm
Fri, Dec 9
70 °FMild.8 mph94%30.12 "HgN/A
10:58 pm70 °FMild.8 mph94%30.12 "HgN/A
9:58 pm72 °FMild.7 mph88%30.15 "HgN/A
8:58 pm73 °FMild.8 mph83%30.12 "HgN/A
7:58 pm73 °FMild.7 mph83%30.12 "HgN/A
6:58 pm77 °FWarm.9 mph74%30.09 "HgN/A
5:58 pm79 °FWarm.9 mph65%30.07 "HgN/A
4:58 pm82 °FWarm.14 mph58%30.04 "HgN/A
3:52 pm88 °FScattered clouds.12 mph43%30.04 "HgN/A
2:50 pm90 °FScattered clouds.10 mph41%30.04 "HgN/A
1:50 pm90 °FScattered clouds.7 mph43%30.04 "HgN/A
12:56 pm86 °FScattered clouds.8 mph52%30.07 "HgN/A
11:50 am84 °FScattered clouds.6 mph58%30.09 "HgN/A
10:51 am82 °FScattered clouds.5 mph66%30.12 "HgN/A
9:50 am81 °FPassing clouds.6 mph70%30.12 "Hg6 mi
8:50 am77 °FPassing clouds.6 mph83%30.12 "Hg6 mi
Weather by CustomWeather, © 2016

See weather overviewHow to use our weather pages